Location: Nag� el Ma?a??a
(24.0667°N, 32.8833°E)
Time: 17:07:12
(UTC+00:00)

SJ-12 - Pass Details

Date: 25 September 2021
Orbit: 567 x 585 km, 97.7° (Epoch: 16 October)

Event Time Altitude Azimuth Distance (km) Brightness Sun altitude
Rises 02:42:23 0° 9° (N) 2,774 7.6 -13.6°
Reaches altitude 10° 02:44:33 10° 8° (N) 1,872 6.7 -13.1°
Maximum altitude 02:48:35 77° 283° (WNW) 586 3.8 -12.1°
Drops below altitude 10° 02:52:36 10° 197° (SSW) 1,857 6.3 -11.2°
Sets 02:54:44 0° 195° (SSW) 2,750 7.2 -10.7°
